Welcome to the New NWS' Forecast!
Most changes are behind the scenes, but click here for differences you might notice.
Latest weather observations around

Fayetteville, Drake Field (KFYV)

Using English Units (Switch to International System of Units)
Date/ Time (CDT) Wind (mph) Vis. (mi) Weather Sky Cond. Temp (°F) Rel. Humidity Wind Chill (°F) Heat Index (°F) Pressure Precip. (in)
Air Dwpt 6 hour Altimeter (inHg) Sea level (inHg) 1 hr 3 hr 6 hr
Max Min
May 24 20:53 Calm 10 Mostly Cloudy BKN050 56 50     80%     29.71 29.7      
May 24 19:53 WNW 5 10 Clear CLR 59 49     69%     29.7 29.69      
May 24 18:53 NW 11 10 Partly Cloudy FEW046 FEW055 SCT085 63 47     56%     29.7 29.68      
May 24 17:53 WNW 10 10 Mostly Cloudy SCT043 BKN055 BKN070 63 48     58%     29.7 29.68      
May 24 16:53 WNW 14 10 Mostly Clear FEW048 64 47     54%     29.7 29.68      
May 24 15:53 NW 15 10 Cloudy SCT042 OVC080 63 48     58%     29.71 29.7      
May 24 14:53 NW 15 10 Cloudy FEW039 FEW050 OVC070 61 47     60%     29.72 29.7      
May 24 13:53 W 14 10 Cloudy FEW040 OVC065 61 47     60%     29.72 29.7      
May 24 12:53 NW 16 10 Cloudy BKN036 BKN047 OVC060 60 47     62%     29.72 29.7      
May 24 08:53 N 9 10 Mostly Cloudy BKN015 BKN020 53 49     86%     29.74 29.72      
May 24 07:53 NW 8 10 Cloudy BKN012 BKN035 OVC080 50 49     96% 47   29.74 29.72      
May 24 07:31 NW 9 10 Cloudy BKN013 BKN034 OVC080 50 49     96% 46   29.74        
May 24 06:53 NW 7 10 Cloudy FEW041 SCT050 OVC085 50 48     93% 47   29.73 29.71      
May 24 05:53 NW 6 10 Cloudy OVC049 50 48     93% 48   29.72 29.71      
May 24 04:53 Calm 10 Cloudy FEW026 BKN034 OVC085 50 48     93%     29.73 29.71      
May 24 04:46 Calm 10 Cloudy SCT026 BKN034 OVC085 49 49     100%     29.73        
May 24 04:06 SSW 3 10 Mostly Cloudy BKN023 48 48     100% 47   29.74        
May 24 03:53 S 3 10 Mostly Clear FEW025 46 46     100% 45   29.74 29.73      
May 24 02:53 W 5 10 Clear CLR 50 48     93% 48   29.75 29.73      
May 24 01:53 W 5 10 Clear CLR 51 48     89%     29.76 29.74      
May 24 00:53 WNW 9 10 Clear CLR 53 48     83%     29.78 29.76      
May 23 23:53 WNW 5 10 Mostly Cloudy BKN090 BKN120 55 49     80%     29.79 29.77      
May 23 22:53 NW 9 10 Mostly Cloudy FEW050 BKN080 BKN110 56 50     80%     29.8 29.78      
May 23 21:53 Calm 10 Clear CLR 54 54     100%     29.79 29.78      
May 23 20:53 Calm 10 Clear CLR 56 53     90%     29.8 29.78      
May 23 19:53 W 6 10 Clear CLR 59 53     81%     29.8 29.78      
May 23 18:53 NW 9 10 Mostly Clear FEW044 61 54     78%     29.79 29.76     0
May 23 17:53 WNW 7 10 Mostly Cloudy FEW022 BKN080 61 57     87%     29.81 29.78 0    
May 23 16:53 NW 7 10 Light Rain OVC085 60 58     93%     29.81 29.79 0    
May 23 15:53 NW 9 10 Light Rain FEW026 SCT045 OVC060 60 58     93%     29.82 29.8 0 0  
May 23 14:53 WNW 14 10 Cloudy OVC060 64 55     73%     29.82 29.8      
May 23 13:53 NW 9 10 Mostly Cloudy SCT033 BKN041 BKN060 69 56     63%     29.82 29.79      
May 23 12:53 NW 8 10 Mostly Cloudy FEW031 SCT039 BKN060 69 57     65%     29.84 29.81      
May 23 11:53 6 10 Mostly Cloudy FEW023 BKN032 68 57     68%     29.84 29.82      
May 23 10:53 NNW 8 10 Cloudy FEW021 SCT030 OVC036 63 56     78%     29.86 29.84      
May 23 09:53 WNW 7 10 Cloudy OVC019 60 56     86%     29.86 29.84      
May 23 09:35 WNW 6 10 Cloudy SCT014 OVC019 60 57     90%     29.86        
May 23 09:23 NW 8 10 Cloudy OVC014 59 57     93%     29.86        
May 23 09:11 NW 6 10 Cloudy OVC015 59 57     93%     29.86        
May 23 08:53 NNW 5 10 Cloudy OVC013 59 57     93%     29.86 29.84      
May 23 07:53 W 5 10 Cloudy OVC012 59 57     93%     29.86 29.84      
May 23 06:53 W 5 10 Mostly Cloudy BKN013 BKN065 59 58     96%     29.87 29.85     0
May 23 06:50 W 5 10 Mostly Cloudy BKN013 BKN065 57 57     100%     29.87        
May 23 06:28 S 3 10 Partly Cloudy SCT017 57 57     100%     29.86        
May 23 05:53 NW 3 10 Cloudy SCT019 BKN029 OVC046 58 58     100%     29.87 29.85 0    
May 23 04:53 SE 5 10 Light Rain FEW018 BKN032 OVC060 59 58     96%     29.87 29.84 0    
May 23 03:53 S 5 10 Cloudy BKN036 BKN046 OVC060 58 57     97%     29.88 29.85      
May 23 02:53 SSE 3 10 Mostly Cloudy FEW033 BKN055 59 57     93%     29.88 29.85      
May 23 01:53 SSW 3 10 Cloudy BKN050 OVC100 60 55     83%     29.9 29.87      
May 23 00:53 S 6 10 Clear CLR 58 56     93%     29.91 29.88      
May 22 23:53 S 5 10 Mostly Cloudy SCT047 BKN055 60 57     90%     29.92 29.89      
May 22 22:53 Calm 10 Mostly Cloudy SCT050 BKN095 BKN120 61 58     90%     29.94 29.91      
May 22 21:53 S 5 10 Mostly Clear FEW110 60 57     90%     29.94 29.91      
May 22 20:53 Calm 10 Cloudy OVC110 66 57     73%     29.94 29.92      
May 22 19:53 S 3 10 Clear CLR 66 56     70%     29.94 29.92      
May 22 18:53 SSW 7 10 Clear CLR 70 53     55%     29.96 29.94      
May 22 17:53 SSW 8 10 Clear CLR 72 51     48%   71 29.97 29.95      
May 22 16:53 S 8 10 Clear CLR 74 50     43%   73 29.98 29.95      
May 22 15:53 S 6 10 Clear CLR 73 49     43%   72 29.99 29.97      
May 22 14:53 S 8 10 Clear CLR 73 47     39%   72 30.01 29.99      
May 22 13:53 S 9 10 Clear CLR 73 47     39%   72 30.04 30.02      
May 22 12:53 S 8 10 Clear CLR 72 48     43%   71 30.07 30.05      
May 22 11:53 S 10 10 Clear CLR 72 48     43%   71 30.1 30.07      
May 22 10:53 SSE 8 10 Clear CLR 70 50     49%     30.11 30.09      
May 22 09:53 Calm 10 Clear CLR 65 55     70%     30.14 30.12      
May 22 08:53 Calm 10 Clear CLR 59 54     83%     30.14 30.13      
May 22 06:53 SE 3 10 Clear CLR 50 50     100% 49   30.16 30.14      
May 22 05:53 S 5 10 Clear CLR 49 49     100% 47   30.15 30.13      
May 22 04:53 S 5 10 Clear CLR 50 50     100% 48   30.15 30.13      
May 22 03:53 S 6 10 Clear CLR 50 50     100% 48   30.15 30.13      
May 22 02:53 Calm 10 Clear CLR 51 51     100%     30.13 30.11      
May 22 01:53 Calm 10 Clear CLR 52 52     100%     30.15 30.13      
May 22 00:53 Calm 10 Clear CLR 52 52     100%     30.17 30.15      
May 21 23:53 Calm 10 Clear CLR 54 53     97%     30.17 30.16      
May 21 22:53 Calm 10 Clear CLR 54 54     100%     30.18 30.16      
May 21 21:53 Calm 10 Clear CLR 56 55     97%     30.16 30.14      
May 21 20:53 Calm 10 Clear CLR 59 55     87%     30.15 30.14      
May 21 19:53 Calm 10 Clear CLR 64 54     70%     30.15 30.14      
May 21 18:53 NNW 8 10 Clear CLR 67 47     49%     30.13 30.11      
May 21 17:53 WNW 9 10 Clear CLR 70 47     44%     30.15 30.14      
May 21 16:53 Calm 10 Clear CLR 70 44     39%     30.14 30.13      
May 21 15:53 NNE 5 10 Clear CLR 71 45     39%   70 30.15 30.13      
May 21 14:53 NNW 10 10 Clear CLR 70 45     41%     30.16 30.14      
May 21 13:53 6 10 Clear CLR 68 45     43%     30.17 30.16      
May 21 12:53 NNE 7 10 Clear CLR 66 44     45%     30.18 30.16      
May 21 11:53 NNW 11 10 Clear CLR 64 45     50%     30.2 30.18      
May 21 10:53 NNW 13 10 Clear CLR 61 44     54%     30.21 30.19      
May 21 09:53 NNW 13 10 Clear CLR 58 46     65%     30.19 30.18      
May 21 08:53 NNW 10 10 Clear CLR 55 47     74%     30.19 30.17      
May 21 07:53 NNW 6 10 Clear CLR 52 49     89%     30.18 30.17      
May 21 06:53 Calm 10 Clear CLR 48 48     100%     30.16 30.15      
May 21 05:53 S 6 6 Patchy Fog CLR 46 46     100% 43   30.14 30.13      
May 21 05:49 S 7 2.5 Fog/Mist BKN001 46 46     100% 43   30.14        
May 21 05:38 S 8 0.25 Fog VV001 47 47     100% 43   30.13        
May 21 05:24 S 5 1.5 Fog/Mist BKN002 47 47     100% 45   30.13        
May 21 05:13 SSW 5 2 Fog/Mist OVC002 46 46     100% 44   30.12        
May 21 04:53 S 5 0.5 Fog VV002 47 47     100% 45   30.11 30.09      
May 21 03:53 S 3 0.5 Fog VV002 48 48     100% 47   30.09 30.07      
May 21 02:53 S 5 0.25 Fog VV001 48 48     100% 46   30.09 30.07      
May 21 02:37 S 6 0.75 Fog/Mist VV001 48 48     100% 45   30.09        
May 21 02:33 S 3 2.5 Fog/Mist BKN001 48 48     100% 47   30.09        
May 21 02:24 SSW 5 3 Fog/Mist FEW001 48 48     100% 46   30.09        
May 21 02:20 SSW 3 1.25 Fog/Mist SCT001 48 48     100% 47   30.09        
May 21 02:13 S 5 2 Fog/Mist SCT001 49 49     100% 47   30.09        
May 21 01:53 Calm 10 Clear CLR 50 50     100%     30.09 30.08      
May 21 00:53 S 5 10 Clear CLR 51 51     100%     30.1 30.08      
May 20 23:53 Calm 10 Clear CLR 56 52     87%     30.1 30.07      
May 20 22:53 WNW 7 10 Mostly Clear FEW037 58 54     87%     30.07 30.05      
May 20 22:10 3 3 Fog/Mist FEW002 BKN035 56 56     100%     30.05        
May 20 21:54 Calm 0.75 Fog/Mist FEW002 SCT034 56 56     100%     30.04        
May 20 21:52 Calm 1.25 Fog/Mist SCT034 56 56     100%     30.04 30.02      
May 20 21:51 Calm 1.5 Fog/Mist SCT034 55 55     100%     30.04        
May 20 20:53 Calm 10 Clear CLR 59 59     100%     30.02 30      
May 20 19:53 S 3 10 Clear CLR 62 60     93%     30 29.98      
May 20 18:53 Calm 10 Mostly Cloudy BKN070 63 60     90%     29.99 29.96     0
May 20 18:07 W 6 10 Mostly Cloudy FEW013 SCT026 BKN041 63 61     93%     29.97        
May 20 17:37 WSW 6 3 Light Rain and Fog/Mist FEW008 BKN013 OVC020 61 61     100%     29.96   0    
May 20 17:21 W 8 10 Cloudy SCT008 OVC020 62 61     96%     29.96   0    
May 20 16:53 WNW 8 4 Light Rain and Fog/Mist OVC008 62 62     100%     29.96 29.93 0    
May 20 16:37 WNW 7 4 Light Rain and Fog/Mist OVC008 63 63     100%     29.96   0    
May 20 16:10 W 8 10 Cloudy BKN010 OVC015 63 62     97%     29.96        
May 20 16:00 7 10 Cloudy SCT010 OVC015 64 62     93%     29.95        
May 20 15:53 W 10 10 Cloudy BKN014 OVC034 66 63     90%     29.95 29.92 0 0  
May 20 15:42 W 11 10 Cloudy SCT006 BKN014 OVC034 66 64     93%     29.95   0    
May 20 14:57 WNW 10 8 Cloudy BKN007 OVC013 64 64     100%     29.95   0    
May 20 14:34 W 10 10 Cloudy OVC015 67 66     97%     29.94        
May 20 13:53 SW 9 10 Cloudy OVC014 67 64     90%     29.94 29.92      
May 20 13:48 SW 8 10 Cloudy OVC014 66 64     94%     29.94        
May 20 12:53 SSW 11 10 Cloudy OVC016 67 64     90%     29.94 29.91      
May 20 11:53 SSW 7 10 Cloudy OVC018 68 64     87%     29.94 29.91      
May 20 10:53 S 15 10 Mostly Cloudy BKN026 67 64     90%     29.93 29.9      
May 20 09:53 S 7 10 Clear CLR 66 64     93%     29.91 29.88      
May 20 08:53 SSW 6 10 Mostly Cloudy BKN038 63 63     100%     29.92 29.89      
May 20 07:53 Calm 10 Clear CLR 62 61     96%     29.89 29.86      
May 20 06:53 Calm 10 Partly Cloudy FEW090 SCT110 61 61     100%     29.87 29.84 0   1
May 20 06:38 E 17 10 Light Rain SCT090 OVC110 62 61     96%         0    
May 20 06:29 SE 11 10 Light Rain OVC100 62 61     96%     29.87   0    
May 20 06:05   7 Thunderstorms and Rain FEW070 BKN090 OVC100 61 61     100%     29.82   0    
May 20 05:53 ESE 14 5 Rain and Fog/Mist FEW070 BKN090 OVC100 61 61     100%     29.87 29.84 0    
May 20 05:36 E 11 5 Rain and Fog/Mist SCT070 OVC100 61 61     100%     29.88   0    
May 20 04:53 E 8 4 Thunderstorms and Heavy Rain and Fog/Mist FEW037 BKN075 OVC095 61 61     100%     29.91 29.89 0    
May 20 04:44 E 6 3 Heavy Rain and Fog/Mist FEW006 SCT036 OVC060 61 61     100%     29.93   0    
May 20 04:36 3 3 Thunderstorms and Heavy Rain and Fog/Mist FEW006 SCT037 OVC055 61 61     100%     29.93   0    
May 20 04:20 WSW 5 4 Thunderstorms and Rain and Fog/Mist SCT008 BKN026 OVC075 61 61     100%     29.92   0    
May 20 04:00 E 7 4 Rain and Fog/Mist FEW009 SCT060 OVC075 61 61     100%     29.91   0    
May 20 03:53 ENE 7 4 Rain and Fog/Mist FEW009 BKN060 OVC080 61 61     100%     29.89 29.87 0 1  
May 20 03:50 5 5 Rain and Fog/Mist FEW008 BKN055 OVC080 61 61     100%     29.89   0    
May 20 03:38 E 9 4 Thunderstorms and Rain and Fog/Mist FEW008 BKN055 OVC080 61 61     100%     29.9   0    
May 20 03:11 ENE 5 4 Rain and Fog/Mist SCT008 BKN045 OVC070 61 61     100%     29.9   0    
May 20 03:05 NE 6 4 Rain and Fog/Mist SCT010 BKN017 OVC070 61 61     100%     29.91   0    
May 20 02:53 Calm 3 Heavy Rain and Fog/Mist BKN007 OVC044 61 61     100%     29.92 29.89 0    
May 20 02:32 Calm 5 Thunderstorms and Rain and Fog/Mist BKN005 BKN055 OVC085 61 61     100%     29.91   0    
May 20 02:18 3 4 Rain and Fog/Mist BKN005 BKN047 OVC075 61 61     100%     29.89   0    
May 20 02:13 3 4 Rain and Fog/Mist SCT005 BKN050 OVC075 61 61     100%     29.89   0    
May 20 01:53 E 5 4 Thunderstorms and Rain and Fog/Mist FEW008 SCT055 OVC075 61 61     100%     29.9 29.87 0    
May 20 01:39 5 6 Light Rain and Fog/Mist FEW007 SCT055 OVC070 61 61     100%     29.91   0    
May 20 01:24 ENE 10 5 Thunderstorms and Rain and Fog/Mist FEW009 BKN055 OVC095 61 61     100%     29.9   0    
May 20 01:04 ENE 8 4 Rain and Fog/Mist SCT009 BKN050 OVC070 61 61     100%     29.93   0    
May 20 01:01 ENE 8 4 Thunderstorms and Rain and Fog/Mist BKN007 BKN016 OVC065 61 61     100%     29.94   0    
May 20 00:53 E 8 4 Thunderstorms and Rain and Fog/Mist SCT007 BKN016 OVC070 61 61     100%     29.95 29.91 0   1
May 20 00:49 E 9 4 Thunderstorms and Rain and Fog/Mist SCT007 BKN046 OVC070 61 61     100%     29.94   0    
May 20 00:33 Calm 3 Thunderstorms and Rain and Fog/Mist BKN007 BKN015 OVC036 61 61     100%     29.94   0    
May 20 00:30 Calm 3 Rain and Fog/Mist SCT007 BKN015 OVC036 61 61     100%     29.94   0    
May 20 00:26 ENE 5 2.5 Rain and Fog/Mist SCT007 SCT017 OVC038 60 60     100%     29.93   0    
May 20 00:14 N 6 2.5 Thunderstorms and Heavy Rain and Fog/Mist SCT007 BKN011 OVC031 60 60     100%     29.91   0    
May 20 00:07 ENE 6 3 Thunderstorms and Heavy Rain and Fog/Mist SCT009 OVC033 61 61     100%     29.98   0    
May 19 23:53 3 2 Thunderstorms and Heavy Rain and Fog/Mist FEW010 FEW018 OVC031 60 60     100%     29.96 29.93 1    
May 19 23:38 Calm 1 Thunderstorms and Rain and Fog/Mist SCT011 BKN025 OVC037 61 61     100%     29.97   0    
May 19 23:29 6 1.5 Thunderstorms and Heavy Rain and Fog/Mist FEW013 BKN035 OVC055 62 61     96%     29.96   0    
May 19 23:25   5 Thunderstorms and Rain and Fog/Mist FEW012 BKN038 OVC050 62 61     96%     29.95   0    
May 19 22:53 6 6 Thunderstorms and Fog/Mist FEW019 BKN028 OVC036 64 60     87%     29.91 29.88      
May 19 22:27 N 8 10 Cloudy BKN025 OVC034 65 60     84%     29.91        
May 19 22:19 6 10 Cloudy BKN025 OVC036 65 60     84%     29.91        
May 19 21:53 N 3 10 Mostly Cloudy SCT034 BKN110 67 64     90%     29.91 29.87   0  
May 19 20:53 Calm 10 Clear   67 65     93%     29.88 29.85 0    
May 19 19:53 NE 6 10 Mostly Cloudy FEW035 BKN100 68 64     87%     29.87 29.84      
May 19 18:53 6 10 Clear CLR 69 64     84%     29.86 29.83     0
May 19 17:53 Calm 10 Clear CLR 69 64     84%     29.86 29.83      
May 19 16:53 ENE 7 10 Mostly Clear FEW034 68 64     87%     29.9 29.87 0    
May 19 16:00 Calm 7 Light Rain BKN043 BKN060 OVC095 67 62     84%     29.92   0    
May 19 15:53 Calm 9 Cloudy BKN028 OVC043 67 61     81%     29.92 29.9      
May 19 15:43 WNW 6 10 Cloudy FEW024 OVC043 68 61     78%     29.94        
May 19 15:34   10 Cloudy FEW024 BKN040 OVC070 68 61     78%     29.94        
May 19 14:53 S 7 10 Mostly Cloudy SCT022 BKN100 75 69     82%   76 29.92 29.88      
May 19 13:53 S 15 10 Mostly Cloudy BKN025 BKN032 75 69     82%   76 29.92 29.88      
May 19 12:53 S 15 10 Mostly Cloudy BKN022 BKN095 76 70     82%   77 29.91 29.88     0
May 19 11:53 SSE 10 10 Cloudy BKN020 BKN025 OVC039 74 69     85%   75 29.93 29.88      
May 19 10:53 ENE 6 10 Cloudy BKN017 BKN021 OVC029 69 66     90%     29.94 29.9      
May 19 09:53 ENE 5 10 Cloudy OVC044 67 65     93%     29.95 29.91   0  
May 19 09:08 ESE 6 10 Mostly Cloudy FEW032 BKN075 64 63     96%     29.96        
May 19 08:53 ESE 7 10 Mostly Cloudy FEW008 FEW033 BKN075 64 63     96%     29.96 29.93 0    
May 19 08:48 E 9 10 Mostly Cloudy FEW008 FEW035 BKN075 63 63     100%     29.96   0    
May 19 08:41 E 8 10 Thunderstorms SCT008 SCT035 BKN075 63 63     100%     29.96   0    
May 19 08:33 ESE 10 10 Thunderstorms BKN008 BKN031 BKN080 63 62     97%     29.96   0    
May 19 08:20 E 3 10 Cloudy BKN008 OVC038 62 62     100%     29.97        
May 19 08:13 E 5 10 Cloudy BKN008 OVC041 63 62     97%     29.97        
May 19 08:00 E 6 10 Cloudy SCT008 BKN041 OVC050 62 62     100%     29.98        
May 19 07:53 ENE 3 10 Mostly Cloudy SCT009 SCT039 BKN048 62 62     100%     29.97 29.93 0    
May 19 07:30 Calm 10 Light Rain SCT009 BKN036 OVC050 62 61     96%     29.97   0    
May 19 06:53 NNW 13 10 Light Rain FEW013 BKN031 OVC042 62 61     96%     29.98 29.94 0   0
May 19 06:29   10 Cloudy FEW008 OVC065 61 61     100%     29.95        
May 19 06:18 SSE 3 10 Cloudy BKN065 OVC090 61 61     100%     29.91        
May 19 05:53 Calm 10 Cloudy OVC070 61 61     100%     29.92 29.88      
May 19 04:53 ENE 3 10 Cloudy OVC065 61 61     100%     29.88 29.85      
May 19 03:53 E 6 10 Clear   61 61     100%     29.84 29.79 0 0  
May 19 03:02 6 6 Rain and Fog/Mist OVC095 61 61     100%     29.9   0    
May 19 02:53 ENE 6 6 Thunderstorms and Rain and Fog/Mist BKN090 OVC100 61 61     100%     29.92 29.88 0    
May 19 02:45 E 6 6 Thunderstorms and Rain and Fog/Mist FEW065 OVC095 61 61     100%     29.94   0    
May 19 02:29 ESE 8 4 Rain and Fog/Mist FEW070 OVC090 61 61     100%     29.96   0    
May 19 02:11 S 5 5 Thunderstorms and Rain and Fog/Mist OVC090 61 61     100%     29.97   0    
May 19 02:03 S 7 5 Rain and Fog/Mist OVC090 61 61     100%     29.98   0    
May 19 01:53 SSW 5 5 Rain and Fog/Mist OVC100 62 61     96%     29.98 29.93 0    
May 19 01:38 W 6 6 Rain and Fog/Mist OVC095 62 61     96%     29.97   0    
May 19 01:25 WSW 9 6 Rain and Fog/Mist BKN090 OVC110 62 61     96%     29.97   0    
May 19 00:53 WSW 13 7 Thunderstorms and Rain SCT055 OVC075 62 61     96%     29.96 29.92 1   1
May 19 00:42 WSW 13 3 Thunderstorms and Rain and Fog/Mist BKN043 OVC070 62 61     96%     29.94   1    
May 19 00:31 WSW 18 2 Thunderstorms and Rain and Fog/Mist BKN035 62 60     93%     29.94   1    
May 19 00:18 W 16 1 Thunderstorms and Heavy Rain and Fog/Mist BKN020 BKN039 62 60     93%     29.92   0    
May 19 00:09   2.5 Thunderstorms and Rain FEW028 FEW050 SCT080 71 64     79%   72 29.94   0    
May 19 00:06   10 Mostly Clear FEW080 75 69     82%   76 29.91        
May 18 23:53 S 10 10 Clear CLR 75 70     84%   76 29.85 29.8      
May 18 22:53 S 8 10 Partly Cloudy SCT085 75 70     84%   76 29.89 29.84      
May 18 21:53 SSE 13 10 Mostly Cloudy FEW029 SCT045 BKN085 76 69     79%   77 29.85 29.8      
May 18 20:53 SE 6 10 Mostly Clear FEW040 76 68     76%   77 29.8 29.76      
May 18 19:53 ESE 10 10 Clear CLR 78 67     69%   79 29.79 29.75      
May 18 18:53 SE 9 10 Clear CLR 79 68     69%   80 29.8 29.75      
May 18 17:53 SSE 13 10 Clear CLR 82 68     63%   85 29.8 29.75      
May 18 16:53 SSE 14 10 Mostly Clear FEW048 83 65     55%   85 29.81 29.77      
May 18 15:53 SSE 13 10 Mostly Clear FEW049 84 66     55%   86 29.83 29.79      
May 18 14:53 SSE 10 10 Mostly Clear FEW049 84 66     55%   86 29.85 29.81      
May 18 13:53 SSE 9 10 Partly Cloudy SCT041 83 67     59%   86 29.86 29.82      
May 18 12:53 S 9 10 Partly Cloudy SCT037 81 67     62%   83 29.88 29.83      
May 18 11:53 S 15 10 Mostly Cloudy BKN032 81 68     65%   84 29.89 29.85      
May 18 11:17 S 15 10 Mostly Cloudy BKN030 80 69     69%   83 29.88        
May 18 10:53 S 20 10 Mostly Cloudy and Windy BKN029 78 67     69%   79 29.88 29.84      
May 18 10:26 S 21 10 Mostly Cloudy and Windy BKN026 79 68     69%   80 29.88        
May 18 10:14 S 16 10 Partly Cloudy SCT026 78 68     71%   79 29.88        
May 18 10:07 S 14 10 Mostly Cloudy BKN026 78 68     71%   79 29.88        
May 18 09:53 S 17 10 Partly Cloudy SCT026 77 68     74%   78 29.87 29.83      
May 18 09:29 S 18 10 Partly Cloudy SCT024 76 69     79%   77 29.87        
May 18 08:53 S 14 10 Mostly Cloudy BKN023 75 69     82%   76 29.87 29.83      
May 18 07:53 SSW 9 10 Clear CLR 72 68     87%   73 29.85 29.81      
May 18 06:53 S 6 9 Clear CLR 68 67     96%     29.84 29.8      
May 18 05:53 S 6 10 Clear CLR 68 67     96%     29.83 29.79      
May 18 04:53 SSW 9 10 Clear CLR 68 67     96%     29.82 29.78      
May 18 03:53 SSW 6 10 Clear CLR 67 66     97%     29.82 29.78      
May 18 02:53 S 5 10 Clear CLR 67 65     93%     29.82 29.78      
May 18 01:53 SSW 6 10 Clear CLR 67 65     93%     29.82 29.78      
May 18 00:53 S 7 10 Clear CLR 68 65     90%     29.81 29.77      
May 17 23:53 S 6 10 Clear   68 64     87%     29.81 29.77      
May 17 22:53 SE 5 10 Clear CLR 69 62     78%     29.8 29.76      
May 17 21:53 SSE 5 10 Clear CLR 69 62     78%     29.78 29.75      
May 17 20:53 SSE 3 10 Clear CLR 71 61     70%   71 29.76 29.72      
May 17 19:53 SSW 13 10 Clear CLR 75 61     62%   75 29.73 29.7      
May 17 18:53 SSW 13 10 Mostly Clear FEW055 78 61     56%   78 29.71 29.67      
May 17 17:53 S 18 10 Mostly Clear FEW055 80 60     51%   81 29.71 29.66      
May 17 16:53 SSW 20 10 Mostly Cloudy and Windy BKN060 81 60     49%   82 29.7 29.65      
May 17 15:53 S 24 10 Partly Cloudy and Windy SCT055 81 60     49%   82 29.69 29.65      
May 17 14:53 S 25 10 Mostly Clear and Windy FEW050 80 60     51%   81 29.69 29.64      
May 17 13:53 S 26 10 Mostly Clear and Breezy FEW043 79 64     60%   79 29.66 29.61      
May 17 12:53 S 26 10 Partly Cloudy and Breezy SCT035 SCT045 78 64     62%   79 29.68 29.63     0
May 17 11:53 S 23 10 Partly Cloudy and Windy FEW025 SCT035 SCT046 75 65     71%   76 29.69 29.65      
May 17 10:53 S 25 10 Mostly Clear and Windy FEW025 FEW042 73 64     73%   73 29.69 29.65      
May 17 10:14 S 21 10 Mostly Cloudy and Windy FEW020 SCT034 BKN047 71 64     79%   72 29.69        
May 17 10:07 S 24 10 Cloudy and Windy BKN020 BKN040 OVC049 71 64     79%   72 29.7        
May 17 09:53 S 26 10 Mostly Cloudy and Breezy SCT020 BKN041 BKN049 70 63     78%     29.69 29.65   0  
May 17 08:53 S 17 10 Mostly Clear FEW110 66 62     87%     29.69 29.65 0    
May 17 07:53 SSE 10 10 Mostly Cloudy FEW090 BKN110 65 61     87%     29.71 29.67      
May 17 06:53 S 10 10 Cloudy FEW034 SCT041 OVC075 65 61     87%     29.78 29.74 0   0
May 17 05:53 S 18 10 Mostly Cloudy BKN040 BKN048 BKN075 68 58     70%     29.74 29.7      
May 17 04:53 S 14 10 Mostly Clear FEW080 68 59     73%     29.72 29.68      
May 17 03:53 SSW 18 10 Clear CLR 69 60     73%     29.75 29.7      
May 17 02:53 S 14 10 Clear CLR 70 60     71%     29.67 29.63      
May 17 01:53 S 15 10 Clear CLR 70 61     73%     29.69 29.64      
May 17 00:53 S 18 10 Mostly Clear FEW046 71 61     70%   71 29.71 29.66      
May 16 23:53 S 16 10 Cloudy OVC045 72 60     66%   72 29.73 29.69      
May 16 22:53 S 14 10 Clear CLR 72 59     64%   72 29.75 29.71      
May 16 21:53 SSE 13 10 Clear CLR 73 59     61%   73 29.76 29.71      
May 16 20:53 SSE 15 10 Clear CLR 74 59     60%   74 29.74 29.7      
May 16 19:53 SSE 10 10 Clear CLR 75 58     55%   75 29.74 29.7      
May 16 18:53 SSE 20 10 Clear and Windy CLR 78 57     48%   78 29.75 29.71      
May 16 17:53 S 15 10 Clear CLR 79 56     45%   79 29.79 29.75      
May 16 16:53 S 20 10 Clear and Windy CLR 80 57     45%   80 29.8 29.77      
May 16 15:53 S 20 10 Clear and Windy CLR 80 56     44%   80 29.83 29.79      
May 16 14:53 SSW 17 10 Clear CLR 81 56     42%   81 29.85 29.81      
May 16 13:53 S 15 10 Clear CLR 80 56     44%   80 29.87 29.83      
May 16 12:53 SSE 20 10 Clear and Windy CLR 78 52     40%   77 29.88 29.85      
May 16 11:53 S 20 10 Clear and Windy CLR 77 55     47%   77 29.91 29.87      
May 16 10:53 S 22 10 Clear and Windy CLR 75 53     46%   74 29.92 29.88      
May 16 09:53 S 17 10 Clear CLR 73 60     64%   73 29.91 29.88      
May 16 08:53 S 9 10 Clear CLR 70 62     76%     29.91 29.88      
May 16 07:53 S 8 10 Clear CLR 67 61     81%     29.91 29.88      
May 16 06:53 S 6 10 Clear CLR 59 58     96%     29.9 29.86      
Notice The following observation data may not be complete
May 16 05:53 S 5 10 Clear CLR   56      %     29.89 29.85      
Notice The following observation data may not be complete
May 16 04:53 Calm 10 Clear CLR   55      %     29.9 29.87      
Notice The following observation data may not be complete
May 16 03:53 Calm 10 Clear CLR   57      %     29.89 29.85      
May 16 02:53 Calm 10 Clear CLR 61 59     93%     29.89 29.85      
May 16 01:53 S 7 10 Clear CLR 65 60     84%     29.89 29.85      
Notice The following observation data may not be complete
May 16 00:53 Calm 10 Clear CLR   60      %     29.89 29.85      
May 15 23:53 SE 3 10 Clear CLR 67 61     81%     29.9 29.86      
Notice The following observation data may not be complete
May 15 22:53 Calm 10 Clear CLR   61      %     29.91 29.88      
May 15 21:53 Calm 10 Clear CLR 67 62     84%     29.9 29.86      
May 15 20:53 Calm 10 Clear CLR 70 63     78%     29.9 29.86      
May 15 19:53 SE 7 10 Clear CLR 76 63     64%   76 29.9 29.87      
May 15 18:53 SSE 11 10 Clear   79 62     56%   79 29.9 29.87      
May 15 17:53 SSE 10 10 Clear CLR 81 63     54%   82 29.9 29.87      
May 15 16:53 S 9 10 Clear CLR 81 62     53%   82 29.91 29.88      
May 15 15:53 S 9 10 Clear CLR 82 63     53%   83 29.92 29.89      
May 15 14:53 SSW 10 10 Clear CLR 82 62     51%   83 29.94 29.91      
May 15 13:53 S 6 10 Clear CLR 82 63     53%   83 29.96 29.92      
May 15 12:53 SW 6 10 Clear CLR 81 62     53%   82 29.97 29.93      
May 15 11:53 S 8 10 Clear CLR 79 62     56%   79 29.98 29.95      
May 15 10:53 SSW 11 10 Clear CLR 77 61     58%   77 29.99 29.96      
May 15 09:53 S 11 10 Clear CLR 74 61     64%   74 30 29.97      
May 15 08:53 Calm 10 Clear CLR 67 60     79%     29.99 29.96      
Notice The following observation data may not be complete
May 15 07:53 Calm 9 Clear CLR   57      %     29.98 29.96      
Notice The following observation data may not be complete
May 15 06:53 Calm 7 Clear CLR   50      %     29.96 29.93      
Notice The following observation data may not be complete
May 15 05:53 Calm 9 Clear CLR   51      %     29.95 29.92      
Notice The following observation data may not be complete
May 15 04:53 Calm 10 Clear CLR   51      %     29.97 29.94      
May 15 03:53 Calm 10 Clear CLR 53 53     100%     29.97 29.94      
May 15 02:53 Calm 9 Clear CLR 53 53     100%     29.96 29.93      
Notice The following observation data may not be complete
May 15 01:53 Calm 10 Clear CLR   53      %     29.95 29.93      
May 14 23:53 Calm 10 Clear CLR 55 54     96%     29.95 29.93      
May 14 22:53 Calm 10 Clear CLR 56 56     100%     29.95 29.92      
Notice The following observation data may not be complete
May 14 21:53 Calm 10 Clear CLR   56      %     29.94 29.91      
May 14 19:53 S 5 10 Clear CLR 69 55     61%     29.92 29.9      
May 14 18:53 S 10 10 Clear CLR 74 54     50%   73 29.91 29.89      
May 14 17:53 S 8 10 Clear CLR 76 55     48%   75 29.93 29.91      
May 14 16:53 7 10 Clear CLR 77 55     47%   77 29.93 29.91      
May 14 15:53 5 10 Clear CLR 76 55     48%   75 29.94 29.92      
May 14 14:53 7 10 Clear CLR 77 54     45%   77 29.96 29.94      
May 14 13:53 S 8 10 Clear CLR 76 55     48%   75 29.98 29.96      
May 14 12:53 SSE 5 10 Clear CLR 74 54     50%   73 30 29.97      
May 14 11:53 S 8 10 Clear CLR 72 54     53%   71 30.01 29.99      
May 14 10:53 SSW 11 10 Clear CLR 70 54     57%     30.03 30.01      
May 14 09:53 SSE 8 10 Clear CLR 68 54     61%     30.03 30.01      
May 14 08:53 S 7 10 Clear CLR 63 56     78%     30.03 30.01      
May 14 07:53 Calm 10 Clear CLR 53 52     96%     30.03 30.01      
May 14 06:53 Calm 10 Clear CLR 48 48     100%     30.01 29.99      
May 14 05:53 Calm 10 Clear CLR 47 47     100%     30 29.98      
May 14 04:53 Calm 4 Fog/Mist CLR 47 47     100%     29.98 29.96      
May 14 03:53 Calm 10 Clear CLR 48 48     100%     29.97 29.94      
May 14 02:53 Calm 9 Clear CLR 49 49     100%     29.96 29.93      
May 14 01:53 Calm 10 Clear CLR 51 51     100%     29.96 29.93      
May 14 00:53 Calm 10 Clear CLR 53 53     100%     29.96 29.94      
May 13 23:53 SSW 3 10 Clear CLR 54 54     100%     29.96 29.94      
May 13 22:53 S 3 10 Clear CLR 56 55     97%     29.95 29.93      
May 13 21:53 Calm 10 Clear CLR 58 57     97%     29.94 29.92      
May 13 20:53 S 5 10 Clear CLR 62 57     84%     29.94 29.92      
May 13 19:53 S 3 10 Mostly Clear FEW055 68 58     70%     29.93 29.91      
May 13 18:53 Calm 10 Clear CLR 74 52     46%   73 29.92 29.9